Regional Weather Roundup
Issued by NWS

Home | Current Version | Previous Version | Graphics & Text | Print | Product List | Glossary On
Versions: 1 2 3 4 5 6 7 8 9 10 11 12 13 14 15 16 17 18 19 20 21 22 23 24 25 26 27 28 29 30 31 32 33 34 35 36 37 38 39 40 41 42 43 44 45 46 47 48 49 50
000
ASUS45 KTFX 191904
RWRMT
MONTANA HOURLY WEATHER ROUNDUP
NATIONAL WEATHER SERVICE GREAT FALLS MT
104 PM MDT SUN OCT 19 2014

NOTE: "FAIR" INDICATES FEW OR NO CLOUDS BELOW 12000 FEET WITH NO
SIGNIFICANT WEATHER AND/OR OBSTRUCTIONS TO VISIBILITY.

* THESE STATIONS ARE NOT UNDER NWS QUALITY CONTROL. THEY DO NOT
   REPORT WEATHER SUCH AS PRECIPITATION OR FOG.

MTZ001>007-043-192000-
WEST OF THE DIVIDE
CITY           SKY/WX    TMP DP  RH WIND       PRES   REMARKS
KALISPELL      SUNNY     59  45  60 VRB5      30.02F
MISSOULA       SUNNY     54  41  62 CALM      30.05F
BUTTE          SUNNY     59  34  39 NW3       30.10F
MULLAN PASS    SUNNY     50  41  71 S8        30.05F
* ESSEX        N/A       57  43  60 W4         N/A
* LINCOLN      N/A       55  39  55 SE3        N/A
* POLSON       N/A       54  48  80 E3         N/A
* RONAN APT    SUNNY     57  45  64 N/A        N/A
* SEELEY LAKE  N/A       56  41  57 SW1        N/A
* THOMP F APT  SUNNY     59  33  38 S6G11      N/A
$$

MTZ008-052>055-192000-
SOUTHWEST MONTANA
CITY           SKY/WX    TMP DP  RH WIND       PRES   REMARKS
BOZEMAN        SUNNY     57  36  46 CALM      30.08F
DILLON         SUNNY     59  34  39 CALM      30.09F
W YELLOWSTONE  SUNNY     54  32  43 CALM      30.19F
* THREE FORKS  SUNNY     59  48  67 N/A        N/A
* BOULDER HILL N/A       56  32  40 S12G17     N/A
* MONIDA PASS  N/A       57  29  34 SE16G21    N/A
* RAYNOLDS PAS N/A       57  36  46 SE16       N/A
* WHITEHALL    N/A       58  34  41 SE4        N/A
* WISE RIVER   N/A       49  34  56 NW4        N/A
$$

MTZ009>010-012-014-046-048-049-054-192000-
EAST SLOPES AND CENTRAL MONTANA
CITY           SKY/WX    TMP DP  RH WIND       PRES   REMARKS
CUT BANK       PTCLDY    64  34  33 S7        29.94F
GREAT FALLS    SUNNY     72  37  28 S13G21    29.95F
HELENA         SUNNY     57  37  47 CALM      30.04F
* CONRAD       SUNNY     68  37  32 SE10G15    N/A
* DEARBORN     N/A       68  36  31 SW9G24     N/A
* EAST GLACIER N/A       59  37  44 W29G37     N/A
* MONARCH      N/A       64  29  27 S8         N/A
* PENDROY      N/A       65  36  34 S2         N/A
* ROGERS PASS  N/A       59  34  39 SE12G22    N/A
* SAINT MARY   N/A       63  32  31 S10G19     N/A
* SWEET GRASS  N/A       62  36  38 S16G22     N/A
$$

MTZ011-013-016-021-035-040-045-047-050-051-192000-
NORTH CENTRAL MONTANA
CITY           SKY/WX    TMP DP  RH WIND       PRES   REMARKS
HAVRE          PTCLDY    66  41  40 CALM      29.95F
LEWISTOWN      SUNNY     70  36  29 SW16      30.01F
* CHINOOK      PTCLDY    64  43  47 E6        29.96F
* FORT BENTON  SUNNY     66  43  43 CALM      29.96F
* CHESTER      N/A       60  38  44 S2G8       N/A
* DENTON       N/A       68  43  40 SE7G13     N/A
* GEYSER       N/A       68  36  31 SE4        N/A
* JUDITH GAP   N/A       62  39  43 SE17G22    N/A
* LOMA         N/A       65  42  43 E5         N/A
$$

MTZ017>020-022>027-061-062-192000-
NORTHEAST MONTANA
CITY           SKY/WX    TMP DP  RH WIND       PRES   REMARKS
GLASGOW        SUNNY     64  41  43 CALM      30.00S
GLENDIVE       SUNNY     66  39  37 NW5       30.03F
JORDAN         SUNNY     70  37  30 SW6       30.00F
SIDNEY         SUNNY     66  43  43 CALM      30.03S
WOLF POINT     SUNNY     64  45  50 SW7       30.01F
* BEAVER HILL  N/A       63  40  43 NW6G12     N/A
* CIRCLE       N/A       64  46  52 N/A        N/A
* LINDSAY DVD  N/A       64  39  40 W13G18     N/A
* NAVAJO       N/A       66  38  36 SE2G8      N/A
* SACO         N/A       64  44  48 S1         N/A
$$

MTZ028>042-056>058-192000-
SOUTHCENTRAL AND SOUTHEAST MONTANA
CITY           SKY/WX    TMP DP  RH WIND       PRES   REMARKS
BAKER          SUNNY     70  39  32 NW12      30.04F
BILLINGS       SUNNY     63  36  37 S5        30.05F
LIVINGSTON     SUNNY     70  34  27 W16       30.05F
MILES CITY     SUNNY     66  39  37 VRB6      30.03F
* LAUREL APT   SUNNY     64  34  33 N/A        N/A
* ROUNDUP APT  SUNNY     66  37  34 SW11G17    N/A
* ALZADA       N/A       68  40  36 W4G9       N/A
* HYSHAM       N/A       68  34  28 W4         N/A
* LAME DEER    N/A       66  38  36 SE4G9      N/A
* REED POINT   N/A       67  35  31 NE4        N/A
* ROSCOE HILL  N/A       63  31  30 VRB6       N/A
$$

REGIONAL REPORTS...DAKOTAS
CITY           SKY/WX    TMP DP  RH WIND       PRES   REMARKS
WILLISTON      SUNNY     66  41  40 CALM      30.01S
DICKINSON      SUNNY     66  43  43 NW12      29.99S
BEACH          N/A       64  39  40 NW10      30.03F
CROSBY         SUNNY     66  36  33 NE3       29.98F
TIOGA          SUNNY     66  32  28 NW13      30.02S
BISMARCK       SUNNY     72  43  35 NW13G18   29.95R
GRAND FORKS    SUNNY     64  43  47 NW13G20   29.81S
FARGO          SUNNY     70  43  38 NW16      29.81S
BUFFALO SD     SUNNY     70  37  30 W12G22    29.97F
RAPID CITY     SUNNY     72  39  30 N10       30.04F
$$

REGIONAL REPORTS...WYOMING/IDAHO/WASHINGTON
CITY           SKY/WX    TMP DP  RH WIND       PRES   REMARKS
GILLETTE       SUNNY     70  37  30 CALM      30.09F
SHERIDAN       SUNNY     73  34  24 E8        30.05F
CODY           SUNNY    N/A N/A N/A SE9       30.09F
YELLOWSTONE LA SUNNY     48  30  50 SE3       30.26F
MULLAN PASS    SUNNY     50  41  71 S8        30.05S
SAND POINT     PTCLDY    57  50  78 NE7       29.96F
SPOKANE        PTSUNNY   61  48  62 NE10      29.90F

$$



USA.gov is the U.S. government's official web portal to all federal, state and local government web resources and services.